N510MV KCMI-KCKB

Flight info

Callsign N510MV
Flight time N/A
Altitude FL350
Route DCT TTH DCT TOWER DCT XUB DCT JPU DCT CKB DCT
Aircraft C510/L-VGDW/C

Departure

Time N/A
Airport University of Illinois Willard Airport (KCMI)

Arrival

Time 2026-05-04 10:16
Airport North Central West Virginia Airport (KCKB)
Time Latitude Longitude Altitude Speed Heading
2026-05-04 09:56 39.52325 -80.91483 14689 ft 270 kts 72°
2026-05-04 09:57 39.52748 -80.89174 14402 ft 270 kts 73°
2026-05-04 09:57 39.53171 -80.86871 14113 ft 269 kts 73°
2026-05-04 09:57 39.53591 -80.84574 13820 ft 268 kts 72°
2026-05-04 09:57 39.54007 -80.82297 13538 ft 267 kts 73°
2026-05-04 09:58 39.54425 -80.80010 13256 ft 266 kts 73°
2026-05-04 09:58 39.54836 -80.77751 12978 ft 265 kts 73°
2026-05-04 09:58 39.55254 -80.75459 12703 ft 264 kts 73°
2026-05-04 10:00 39.58170 -80.59373 9985 ft 270 kts 73°
2026-05-04 10:00 39.58588 -80.57049 9502 ft 263 kts 74°
2026-05-04 10:02 39.61223 -80.42403 6888 ft 228 kts 75°
2026-05-04 10:04 39.63323 -80.29282 4869 ft 199 kts 99°
2026-05-04 10:04 39.62961 -80.27746 4672 ft 189 kts 117°
2026-05-04 10:04 39.62388 -80.26382 4479 ft 182 kts 137°
2026-05-04 10:04 39.61619 -80.25349 4291 ft 176 kts 144°
2026-05-04 10:05 39.60755 -80.24329 4096 ft 173 kts 147°
2026-05-04 10:05 39.59853 -80.23331 3897 ft 170 kts 149°
2026-05-04 10:05 39.58968 -80.22367 3758 ft 166 kts 149°
2026-05-04 10:05 39.58147 -80.21480 3753 ft 160 kts 150°
2026-05-04 10:06 39.57343 -80.20618 3758 ft 163 kts 150°
2026-05-04 10:06 39.56452 -80.19680 3764 ft 171 kts 148°
2026-05-04 10:06 39.55523 -80.18682 3763 ft 179 kts 148°
2026-05-04 10:08 39.50092 -80.12863 3764 ft 164 kts 151°
2026-05-04 10:08 39.49137 -80.12448 3757 ft 146 kts 191°
2026-05-04 10:08 39.48211 -80.12797 3774 ft 140 kts 208°
2026-05-04 10:08 39.47313 -80.13251 3772 ft 140 kts 208°
2026-05-04 10:09 39.46426 -80.13713 3769 ft 140 kts 208°
2026-05-04 10:09 39.45527 -80.14196 3633 ft 148 kts 209°
2026-05-04 10:09 39.44610 -80.14693 3295 ft 145 kts 208°
2026-05-04 10:09 39.43702 -80.15184 2950 ft 141 kts 207°
2026-05-04 10:10 39.42811 -80.15672 2878 ft 140 kts 207°
2026-05-04 10:10 39.41928 -80.16146 2867 ft 138 kts 207°
2026-05-04 10:10 39.41066 -80.16611 2862 ft 136 kts 208°
2026-05-04 10:10 39.40208 -80.17077 2866 ft 135 kts 207°
2026-05-04 10:11 39.39356 -80.17541 2874 ft 134 kts 208°
2026-05-04 10:11 39.38519 -80.18001 2860 ft 128 kts 209°
2026-05-04 10:11 39.37759 -80.18429 2704 ft 117 kts 207°
2026-05-04 10:11 39.37033 -80.18823 2562 ft 115 kts 207°
2026-05-04 10:12 39.36300 -80.19223 2426 ft 114 kts 206°
2026-05-04 10:12 39.35578 -80.19614 2286 ft 115 kts 206°
2026-05-04 10:12 39.34838 -80.20013 2128 ft 116 kts 206°
2026-05-04 10:12 39.34100 -80.20410 1972 ft 118 kts 204°
2026-05-04 10:13 39.33347 -80.20789 1790 ft 117 kts 205°
2026-05-04 10:13 39.32634 -80.21183 1639 ft 113 kts 205°
2026-05-04 10:13 39.31929 -80.21586 1521 ft 111 kts 202°
2026-05-04 10:13 39.31221 -80.21964 1379 ft 112 kts 201°
2026-05-04 10:14 39.30519 -80.22349 1225 ft 110 kts 200°
2026-05-04 10:14 39.29943 -80.22656 1198 ft 62 kts 202°
2026-05-04 10:16 39.29778 -80.22992 1187 ft 4 kts 258°
2026-05-04 10:16 39.29764 -80.23000 1186 ft 4 kts 156°
2026-05-04 10:16 39.29756 -80.22984 1187 ft 2 kts 108°
2026-05-04 10:16 39.29756 -80.22982 1187 ft 0 kts 107°